This demonstration page uses our WeatherBlox Daily Observations layout. Learn more.

38.89511, -77.03637

Hourly Observations for December 30, 2016

Temp ( °F °C ) Dew Point ( °F °C ) Humidity (%) Winds ( mph kmh ) Pressure ( in mb ) Visibility ( mi km ) Precip ( " mm )
12:52 am 00:52 Mostly Cloudy 41 5 28 -2.2 60 60 W 17 28 29.74 1007 10 16.0934 0 0.0254
1:52 am 01:52 Cloudy 40 4.4 29 -1.7 65 65 WNW 12 19 29.75 1008 10 16.0934 0 0
2:52 am 02:52 Mostly Clear 39 3.9 28 -2.2 65 65 W 9 15 29.75 1007 10 16.0934 0 0
3:52 am 03:52 Mostly Cloudy 37 2.8 26 -3.3 65 65 S 6 9 29.75 1008 10 16.0934 0 0
4:52 am 04:52 Partly Cloudy 38 3.3 23 -5 55 55 W 9 15 29.76 1008 10 16.0934 0 0
5:52 am 05:52 Clear 38 3.3 22 -5.6 52 52 W 10 17 29.78 1008 10 16.0934 0 0
6:52 am 06:52 Partly Cloudy 37 2.8 22 -5.6 54 54 W 10 17 29.8 1009 10 16.0934 0 0
7:52 am 07:52 Mostly Sunny 37 2.8 22 -5.6 54 54 W 8 13 29.81 1010 10 16.0934 0 0
8:52 am 08:52 Partly Cloudy 39 3.9 21 -6.1 48 48 W 12 19 29.83 1010 10 16.0934 0 0
9:52 am 09:52 Partly Cloudy 41 5 22 -5.6 47 47 W 28 44 29.86 1011 10 16.0934 0 0
10:33 am 10:33 Mostly Cloudy with Scattered Snow Showers 41 5 21 -6.1 45 45 W 14 22 29.88 1012 10 16.0934 0 0.0254
10:52 am 10:52 Cloudy 42 5.6 21 -6.1 43 43 WNW 14 22 29.88 1012 9 14.48406 0 0.0254
11:52 am 11:52 Mostly Cloudy 42 5.6 23 -5 47 47 WNW 12 19 29.88 1012 10 16.0934 0 0
12:52 pm 12:52 Partly Cloudy 42 5.6 19 -7.2 40 40 WNW 21 33 29.88 1012 10 16.0934 0 0
1:52 pm 13:52 Mostly Cloudy 43 6.1 18 -7.8 37 37 WNW 24 39 29.88 1012 10 16.0934 0 0
2:52 pm 14:52 Mostly Cloudy 41 5 20 -6.7 43 43 WNW 10 17 29.9 1013 10 16.0934 0 0
3:52 pm 15:52 Mostly Cloudy 39 3.9 24 -4.4 55 55 NW 8 13 29.95 1014 10 16.0934 0 0
4:52 pm 16:52 Mostly Cloudy with Scattered Snow Showers 38 3.3 24 -4.4 57 57 WNW 15 24 29.99 1016 10 16.0934 0 0.0254
5:05 pm 17:05 Mostly Cloudy 37 2.8 23 -5 57 57 WNW 10 17 30 1016 9 14.48406 0 0.0254
5:52 pm 17:52 Partly Cloudy 37 2.8 21 -6.1 52 52 WNW 7 11 30.01 1016 10 16.0934 0 0.0254
6:52 pm 18:52 Mostly Clear 37 2.8 18 -7.8 46 46 NW 13 20 30.05 1018 10 16.0934 0 0
7:52 pm 19:52 Partly Cloudy 36 2.2 16 -8.9 44 44 NNW 8 13 30.08 1019 10 16.0934 0 0
8:52 pm 20:52 Mostly Clear 35 1.7 16 -8.9 46 46 W 7 11 30.1 1019 10 16.0934 0 0
9:52 pm 21:52 Partly Cloudy 35 1.7 17 -8.3 48 48 SW 6 9 30.12 1020 10 16.0934 0 0
10:52 pm 22:52 Mostly Clear 33 0.6 18 -7.8 54 54 W 6 9 30.12 1020 10 16.0934 0 0
11:52 pm 23:52 Mostly Clear 33 0.6 18 -7.8 54 54 WSW 6 9 30.14 1021 10 16.0934 0 0

Powered by AerisWeather